Torna al catalogo

STARLINK-35134

AttivoComunicazioniVLEO
NORAD 65641·PAYLOAD·🇺🇸 United States

Lanciato Sep 18, 2025 da Cape Canaveral Space Force Station

Loading…

Prossimi Passaggi (prossime 24 ore)

TLE

AggiornatoSource: CelesTrak SupGP

Epoca: Sep 14, 2026, 22:40 UTC

1 65641C 25210V   26257.94493056 -.00076959  00000+0 -22736-2 0  2570
2 65641  53.1566 143.5322 0001205  97.5997 133.1504 15.34430832    15

Traccia STARLINK-35134 in tempo reale con AllMySat

Download on the App Store